Погода в Ашхабаде

Туркменистан     37°56′06″N   58°22′44″E
темп.,
°C
ветер,
м/с
пор.,
м/с
влажн.,
%
обл.,
%
осадки,
мм/ч
давл.,
гПа
погр.,
м
17 апреля, сб
сб1723:00+23юз3333100 0.3 1018271
02:00+21ю3443100 0.0 1018153
05:00+20зсз34445 0.0 1018141
08:00+20сз46435 0.0 1020349
11:00+23сз54370 0.0 10211138
14:00+26сз43270 0.0 10202345
17:00+27ссз44230 0.0 10182860
20:00+25ссв33220 0.0 10191095
18 апреля, вс
вс1823:00+23в12240 0.0 102052
02:00+22в22260 0.0 101943
05:00+20юз112827 0.0 101911
08:00+22юв34320 0.0 1019134
11:00+27вюв77230 0.0 10181770
14:00+30в761885 0.0 10152450
17:00+30в641699 0.0 10142229
20:00+27вюв69180 0.0 1013525
19 апреля, пн
пн1923:00+25вюв611214 0.0 1013502
02:00+23вюв48236 0.0 1012174
05:00+21вюв23267 0.0 101157
08:00+23в112598 0.0 101243
11:00+27ссз23187 0.0 1012498
14:00+30ссз1091488 0.0 10122373
17:00+25сз91123100 0.0 10141610
20:00+25ю2328100 0.0 1013458
20 апреля, вт
вт2023:00+23сз573274 0.0 1014582
02:00+21зсз11411 0.0 1014149
05:00+19ссз24441 0.0 1015195
08:00+19сз22435 0.0 1016261
11:00+23сз333314 0.0 10161068
14:00+26сз66242 0.0 10142237
17:00+27ссз66235 0.0 10132220
20:00+25с442636 0.0 10131025
21 апреля, ср
ср2123:00+23юв233010 0.0 1013125
02:00+22ююв2231100 0.0 101354
05:00+21юв343598 0.0 1013118
08:00+22вюв353397 0.0 1014204
11:00+27вюв77235 0.0 10151699
14:00+29в76185 0.0 10142381
17:00+30в761627 0.0 10142511
20:00+27всв57205 0.0 1015671